Terug naar catalogus

SCOUT X-4 DEB

ActiefLEO
NORAD 732·DEBRIS·🇺🇸 United States

Gelanceerd Dec 19, 1963 vanaf Vandenberg Space Force Base

Loading…

Volgende Passages (komende 24 uur)

TLE

VersSource: Space-Track

Epoch: Sep 14, 2026, 21:35 UTC

1 00732U 63053H   26257.89978573  .00005483  00000-0  15642-2 0  9997
2 00732  78.5426 109.8843 0388908 187.8760 171.6186 14.09004751987805

Volg SCOUT X-4 DEB in realtime met AllMySat

Download on the App Store